Tracking 19709 objects as of 18-Jun-2019
HD Live streaming from Space Station
objects crossing your sky now

BREEZE-M R/B

Track BREEZE-M R/B now!


NORAD ID: 33280
Int'l Code: 2008-039C
Perigee: 4,291.9 km
Apogee: 35,933.8 km
Inclination: 23.0 °
Period: 714.9 minutes
Semi major axis: 26483 km
RCS: 8.2222 m2 (large)
Launch date: August 18, 2008
Source: Commonwealth of Independent States (former USSR) (CIS)
Launch site: TYURATAM MISSILE AND SPACE COMPLEX (TTMTR)

Note: This is a ROCKET BODY
aabbcc
Your satellite tracking list
Your tracking list is empty




NASA's NSSDC Master Catalog

Two Line Element Set (TLE):
1 33280U 08039C   19168.48077584 -.00000247 +00000-0 +00000-0 0  9998
2 33280 022.9862 044.6026 5973825 008.9835 170.6752 02.01433388079603
Source of the keplerian elements: AFSPC